Retour au catalogue

STARLINK-31392

ActifCommunicationsVLEO
NORAD 59530·PAYLOAD·🇺🇸 United States

Lancé Apr 17, 2024 depuis Cape Canaveral Space Force Station

Loading…

Prochains Passages (prochaines 24 heures)

TLE

FraisSource: CelesTrak SupGP

Époque: Sep 15, 2026, 02:49 UTC

1 59530C 24073V   26258.11784722  .00045632  00000+0  16524-2 0  2580
2 59530  43.0021 328.2723 0001327 264.9364 167.2769 15.27564072    16

Suivez STARLINK-31392 en temps réel avec AllMySat

Download on the App Store